Theta_e
318 318 318 318 318 317 317 317 316 316 315 315 313 313 313 313 314 314 314 315 316 318 319 319 319 320 319 314 312 328 339 333 319 319 314 313 311 311 308 310 311 309 313 317 319 320 321
318 318 318 318 317 317 317 317 316 315 314 313 314 314 312 313 313 313 313 315 316 318 318 318 319 319 317 308 317 323 328 320 320 316 315 315 312 313 310 310 309 311 312 314 317 317 318
318 318 318 317 317 317 316 316 316 315 315 313 313 314 313 312 312 312 314 316 318 318 317 318 320 321 316 312 321 324 323 319 318 316 313 316 316 311 313 309 313 311 309 311 314 315 314
317 317 317 317 317 317 316 316 315 314 314 314 313 312 312 313 311 313 315 318 318 317 317 319 321 322 314 319 321 321 320 319 319 320 319 318 317 314 313 313 310 308 309 305 311 315 315
317 317 317 317 317 316 316 316 315 314 314 313 314 312 312 312 312 313 317 317 317 318 319 321 321 320 312 315 314 321 322 318 318 318 319 317 315 313 313 308 305 307 302 305 307 313 313
317 317 317 317 318 317 316 316 314 314 313 313 313 313 311 312 312 314 316 317 319 318 319 321 320 314 316 311 315 319 323 323 318 318 315 313 312 309 309 306 299 302 303 305 306 310 311
316 317 317 317 317 316 316 315 315 314 313 313 312 312 311 312 313 314 316 320 319 318 319 314 314 312 314 320 319 317 321 319 319 317 309 312 307 304 306 308 308 307 306 305 309 311 309
316 316 317 316 316 316 316 316 315 314 313 312 312 312 312 312 312 315 319 321 321 321 313 320 317 315 316 319 311 315 321 313 312 308 311 309 304 309 309 309 307 306 304 306 308 309 308
316 317 317 316 315 315 316 315 315 314 313 313 312 313 313 311 313 316 322 322 325 323 313 314 317 316 315 318 312 312 316 314 310 307 308 306 308 309 308 306 304 305 304 306 305 307 309
316 316 316 315 315 315 315 315 315 314 314 313 312 313 312 313 310 324 320 324 324 323 308 309 310 314 316 317 312 319 317 314 310 307 308 308 310 307 306 305 306 302 307 308 306 304 299
316 316 315 315 315 315 315 315 314 314 314 313 312 313 312 311 323 319 325 325 324 323 298 310 311 321 317 313 315 314 318 315 308 308 309 306 307 306 305 307 309 305 309 307 307 305 304
316 316 315 315 315 315 314 314 314 314 314 313 313 312 313 314 322 326 325 324 323 307 296 308 313 310 310 312 312 314 312 315 314 310 310 308 313 310 308 311 311 312 309 308 307 305 297
315 315 315 315 314 314 314 313 313 314 313 313 312 312 313 321 319 325 324 321 307 299 310 306 307 310 309 308 309 310 309 307 305 302 303 306 307 311 312 308 311 310 306 298 296 296 295
314 314 315 315 314 314 313 313 313 313 313 311 311 312 312 319 324 324 322 312 300 303 305 311 309 309 306 309 308 309 308 306 309 308 305 302 300 307 311 308 307 307 306 299 293 295 297
314 314 314 315 314 314 314 313 313 312 312 310 309 320 319 317 320 320 314 304 304 305 307 307 309 306 306 308 309 308 307 306 309 309 303 304 303 309 308 309 309 307 304 309 302 304 299
313 314 314 314 314 314 313 313 313 313 312 311 322 319 317 323 325 318 310 303 307 308 307 307 304 308 305 307 307 307 307 310 308 309 312 309 302 308 308 308 309 307 310 303 304 295 293
313 313 314 313 313 313 313 313 313 312 310 309 320 316 320 320 322 315 306 307 308 309 308 305 305 306 308 307 307 307 306 307 308 308 310 309 307 305 308 305 304 305 303 306 306 303 295
313 313 313 313 313 313 313 312 312 311 308 304 321 313 319 323 310 311 307 309 300 306 308 306 307 306 306 307 306 307 306 305 305 306 305 309 308 303 304 307 308 307 305 306 300 300 302
312 313 313 313 313 313 312 312 311 310 308 322 317 314 322 321 307 307 310 306 307 306 306 306 305 307 308 305 302 306 305 303 305 305 307 310 305 299 301 306 308 304 306 306 307 306 301
312 312 313 313 313 313 312 312 311 309 310 318 317 310 314 316 317 311 308 306 305 307 306 307 306 308 306 306 307 303 304 304 305 307 304 308 306 304 298 298 301 301 303 305 305 299 300
312 312 312 312 313 313 313 312 311 309 310 318 318 313 314 309 309 310 310 307 304 303 307 307 306 304 303 301 304 303 305 304 305 302 305 306 300 303 304 302 301 301 301 301 301 303 298
312 312 312 312 313 313 313 312 312 310 308 320 314 313 314 311 309 309 305 305 302 303 303 303 302 303 303 301 302 300 302 303 303 306 304 305 300 302 298 298 298 296 296 298 299 299 299
311 311 312 312 312 313 313 313 312 311 313 317 320 320 314 305 306 307 303 302 301 304 305 304 303 303 302 302 305 306 307 306 306 303 303 302 300 298 293 296 295 292 295 295 295 297 298
311 311 312 312 312 313 313 313 312 312 311 319 319 316 310 303 305 303 303 303 301 301 299 302 304 301 305 308 308 307 306 305 305 304 306 302 300 298 293 295 286 295 298 297 294 294 296
311 311 311 312 312 313 313 313 313 312 312 318 320 314 309 303 305 302 302 302 304 304 302 301 303 307 309 306 301 298 298 300 300 301 302 304 301 296 293 291 293 293 295 294 295 291 296
310 311 311 311 312 313 314 313 313 312 311 316 318 319 311 306 301 304 303 303 300 301 303 303 308 311 309 303 298 292 290 293 293 296 303 303 303 297 294 289 285 293 298 300 300 290 296
309 310 310 311 312 313 314 314 314 313 313 316 316 328 312 304 306 306 301 301 304 303 302 305 305 304 308 300 294 293 292 295 290 291 292 293 295 292 293 291 290 297 298 300 289 291 298
308 309 310 310 311 312 314 314 314 313 313 316 316 324 313 306 307 309 308 304 304 304 300 305 305 304 302 297 295 296 294 297 294 295 294 293 292 291 294 288 283 298 298 293 297 301 300
308 308 309 309 310 311 312 314 314 313 312 313 313 318 320 311 309 314 313 312 310 309 307 308 304 305 305 299 299 298 295 296 295 289 299 292 295 293 290 288 297 300 299 304 304 301 300
Wind_Speed
10 10 10 11 11 11 11 11 10 10 10 9 8 8 9 9 9 9 9 8 7 6 6 6 6 6 8 10 10 11 7 10 12 14 17 16 15 14 14 13 14 12 13 8 18 17 19
10 10 11 11 11 11 11 11 11 10 9 9 9 8 8 9 8 8 9 8 8 7 6 6 6 5 9 14 5 3 7 14 14 15 14 15 11 13 9 10 10 14 15 12 20 15 16
11 11 11 11 11 11 11 11 11 11 10 9 9 9 8 8 8 8 8 8 7 6 6 6 6 8 11 10 2 7 12 13 12 14 11 11 10 7 12 10 13 9 8 6 15 11 18
11 12 12 11 11 11 11 12 12 11 11 9 7 9 8 8 7 8 8 8 6 6 6 7 7 11 9 4 5 9 10 6 9 4 10 9 10 13 11 3 8 16 15 15 13 18 16
12 12 11 11 11 11 12 11 12 11 10 9 9 7 8 7 6 8 8 5 5 6 7 8 8 10 10 5 11 12 11 10 9 8 5 6 12 14 13 11 14 15 16 22 10 13 12
13 13 12 12 11 11 11 11 12 11 10 9 9 8 7 7 7 8 7 5 7 6 8 10 10 8 8 12 13 15 12 6 12 12 10 13 11 13 13 15 15 17 20 19 17 10 11
14 14 14 14 14 13 12 12 12 11 10 8 8 7 7 7 7 8 6 6 8 9 13 12 6 8 6 6 8 12 14 13 13 13 15 16 13 16 18 20 20 9 15 15 17 10 12
15 15 15 16 16 15 13 12 12 11 10 9 8 8 6 5 7 8 9 10 8 8 10 20 14 12 1 4 12 15 16 15 15 16 17 12 16 18 16 14 16 10 16 10 11 8 5
15 15 15 16 16 15 14 13 12 12 11 9 9 8 5 4 5 6 12 7 6 8 8 10 12 14 13 13 13 17 18 19 15 17 18 16 15 20 9 10 12 15 18 14 12 10 7
15 16 16 16 15 15 15 14 13 12 11 9 8 6 4 4 3 7 10 2 6 4 8 15 12 10 14 15 15 16 19 18 19 17 19 14 20 6 9 17 16 18 17 13 15 17 12
16 17 17 16 15 16 15 15 14 13 11 8 7 5 6 12 12 9 7 5 7 5 8 10 11 7 13 18 12 13 13 19 19 15 14 15 15 15 16 17 15 15 12 15 16 19 20
18 18 17 17 16 16 16 16 15 13 11 8 6 5 6 7 7 8 6 3 6 9 5 8 9 11 15 18 10 13 12 13 12 15 15 19 6 14 17 11 7 9 13 15 15 16 18
18 18 18 18 18 17 16 16 15 14 12 9 7 7 8 9 1 3 6 8 9 11 6 5 4 13 16 16 13 12 16 17 14 13 15 16 18 14 11 11 9 18 13 9 11 15 16
18 18 19 19 18 18 17 16 15 13 12 9 4 8 11 10 7 6 7 10 11 5 4 6 4 7 15 16 16 14 15 16 18 15 16 15 17 22 14 18 12 14 19 14 15 17 18
19 20 21 21 21 20 19 18 16 13 11 5 5 7 6 6 8 6 9 10 6 7 6 7 13 12 14 17 10 14 16 16 16 15 15 11 12 8 1 8 12 14 18 20 25 23 16
19 20 20 20 20 20 20 18 16 13 9 4 6 7 6 3 4 6 9 13 3 4 7 10 13 3 14 16 16 17 15 15 9 3 2 11 8 10 11 8 14 18 15 14 16 19 23
20 22 22 22 22 22 22 19 17 13 9 3 7 6 6 6 5 8 11 4 4 7 8 8 11 8 12 10 10 14 9 10 10 4 8 14 11 9 3 12 16 12 18 17 16 17 12
21 22 23 24 24 22 22 21 17 12 5 2 5 3 6 6 8 7 7 7 3 5 2 4 6 8 9 12 14 11 12 11 5 7 7 2 7 14 11 6 6 9 15 16 9 16 18
21 22 23 24 24 22 21 22 19 12 2 8 4 5 4 6 6 6 5 0 4 5 4 6 6 3 8 11 6 5 5 8 8 5 10 6 8 13 20 15 14 11 15 11 13 12 19
21 22 23 24 24 24 23 22 19 14 6 5 5 4 6 5 3 9 6 2 3 4 1 6 7 7 7 11 8 8 5 4 6 7 7 7 10 11 15 8 6 13 11 10 12 11 15
21 22 24 25 24 26 26 24 21 15 6 5 2 5 5 3 5 6 6 7 10 4 5 5 5 6 8 7 11 11 8 3 6 7 4 4 11 18 17 11 13 9 8 7 12 12 10
20 22 24 25 25 25 26 27 25 22 11 3 7 5 3 4 4 2 4 6 7 5 8 5 8 8 7 7 8 13 13 11 9 6 6 2 8 8 10 6 7 4 4 5 4 3 2
20 22 24 24 24 25 26 26 27 28 22 5 3 0 6 1 2 6 8 5 7 10 6 4 10 10 11 6 9 8 7 8 10 9 7 5 7 6 13 4 4 7 1 4 2 1 2
20 22 23 24 25 25 26 27 26 25 21 8 4 8 4 6 9 9 6 6 7 7 8 7 8 9 9 6 11 11 11 6 6 4 8 8 8 9 8 7 11 7 3 5 12 8 11
20 21 22 23 23 24 24 25 25 25 24 10 8 8 5 8 9 8 8 10 8 2 4 6 8 7 6 10 10 10 10 13 1 3 5 7 9 9 8 11 4 7 7 9 3 7 7
19 20 21 21 21 22 23 23 23 23 25 9 11 10 7 6 10 9 9 10 10 8 5 5 7 3 7 11 7 6 7 5 4 7 4 7 8 8 8 11 4 6 9 4 2 8 5
19 20 20 20 20 20 21 21 22 22 22 11 10 16 4 9 11 13 10 10 8 9 9 10 10 7 5 9 7 7 4 4 6 9 4 3 11 7 8 9 5 5 4 2 8 6 8
19 19 19 19 18 19 19 19 19 20 19 11 9 11 6 9 10 13 13 12 12 10 10 12 3 7 5 8 6 3 5 2 4 3 6 7 7 7 9 2 5 3 2 4 6 10 8
18 18 19 18 17 17 17 17 17 16 18 16 6 5 4 6 7 6 10 10 10 9 8 10 6 6 5 7 6 5 5 5 6 2 6 2 6 3 4 2 2 5 8 7 8 8 6
Wind_Direction
14 7 2 0 357 351 347 335 328 325 325 326 320 309 305 298 296 293 290 283 281 274 271 269 274 291 269 222 253 121 160 171 189 209 217 213 218 225 224 218 215 213 217 224 96 100 89
12 7 4 359 353 346 341 332 331 329 327 330 319 308 299 292 293 288 285 281 276 265 255 254 262 281 245 252 63 113 139 169 199 211 215 217 223 227 270 245 200 194 251 174 121 122 112
11 5 5 356 347 342 336 335 337 335 328 327 318 310 301 290 288 281 284 277 268 255 247 251 254 253 262 257 351 150 168 180 194 213 212 231 247 199 238 224 210 189 144 153 127 143 136
8 4 2 351 342 343 337 341 340 335 332 325 316 306 300 293 280 283 282 278 243 232 232 242 250 252 262 106 240 192 202 191 189 229 267 211 231 232 249 210 177 202 188 185 175 171 164
7 3 355 347 341 340 341 342 339 336 333 327 315 300 298 292 279 273 284 247 225 223 230 225 230 232 246 125 209 202 205 189 185 208 220 217 214 226 208 209 210 208 203 208 148 211 182
5 359 353 350 344 340 340 342 344 340 338 329 320 315 298 280 271 274 278 250 177 209 222 212 267 250 232 213 182 187 201 223 185 185 179 196 215 222 218 218 212 200 226 213 173 154 202
359 354 353 353 349 344 338 342 347 343 338 331 320 305 285 274 268 269 237 191 201 195 212 242 178 260 124 116 158 197 186 210 204 203 216 205 217 213 215 221 245 279 216 212 110 127 136
351 351 351 350 350 343 339 340 342 342 338 330 317 301 283 270 270 279 265 255 33 346 282 211 247 237 201 246 187 194 180 203 207 216 213 193 232 248 235 227 231 256 257 100 126 156 193
348 347 347 348 344 339 340 340 338 339 338 329 316 297 276 240 265 238 244 299 315 341 258 192 213 220 203 203 217 189 193 208 213 229 230 240 234 213 246 233 246 235 237 164 190 168 180
348 348 349 345 339 337 339 338 337 335 333 327 313 294 255 206 244 207 227 236 269 320 265 153 192 212 198 200 229 188 196 217 234 240 239 237 248 219 228 239 214 239 216 208 181 184 197
349 349 347 342 339 337 335 334 334 332 326 320 302 277 223 228 322 231 51 297 313 230 260 151 126 101 184 209 178 194 195 222 235 228 240 238 230 203 235 229 210 251 209 224 173 216 249
350 348 345 340 339 339 337 333 332 330 324 314 292 254 195 203 236 296 293 315 234 235 243 139 142 187 197 214 196 147 201 241 247 261 227 257 241 245 231 240 273 256 251 205 187 223 243
350 347 343 340 340 341 337 333 331 329 325 314 276 226 212 316 357 14 299 229 240 249 93 149 180 169 200 202 209 197 198 204 227 222 231 222 241 218 254 258 206 239 224 196 214 224 239
351 347 344 342 343 341 339 335 330 328 328 330 204 183 210 268 323 309 264 241 261 33 338 37 278 275 224 218 210 212 221 220 219 246 272 224 213 209 179 234 241 214 223 233 207 222 231
350 347 345 342 343 342 340 336 336 330 329 330 165 200 219 203 231 273 263 240 272 33 22 316 282 240 224 237 238 195 226 239 207 209 252 288 244 84 258 242 260 233 231 236 271 286 277
351 346 344 342 342 342 339 334 333 328 325 261 265 219 131 155 209 245 252 270 350 26 322 303 289 337 276 213 203 240 219 219 216 333 279 285 286 195 151 223 246 252 269 248 230 259 268
352 351 347 345 346 345 340 336 335 333 337 213 247 224 96 188 202 233 252 322 44 72 334 322 322 307 295 311 299 259 254 72 10 159 269 269 255 257 228 219 247 203 233 251 280 280 279
352 352 348 346 348 346 340 341 342 337 14 215 279 246 120 202 225 235 278 8 18 312 276 292 285 290 299 326 309 285 292 80 358 323 262 215 281 256 246 38 324 280 293 297 277 261 249
351 352 350 347 348 348 347 348 351 352 316 308 274 95 151 235 266 232 108 103 25 328 34 327 306 347 336 305 310 291 359 37 3 321 5 356 235 253 255 195 206 240 237 253 275 293 273
352 354 352 348 349 353 358 355 354 354 350 277 286 182 145 224 307 314 354 259 238 59 359 325 308 289 298 276 249 278 290 104 355 10 350 306 272 275 277 29 213 263 254 245 267 268 275
355 356 353 351 354 357 359 359 357 352 337 279 329 61 353 26 83 331 303 346 308 7 332 18 219 11 330 294 291 271 284 291 183 127 221 263 260 266 268 293 276 305 299 262 253 263 291
357 357 355 354 356 359 359 360 356 355 345 314 335 329 103 63 324 321 12 41 349 5 342 31 335 333 324 329 349 318 333 300 288 126 276 210 272 282 244 261 276 263 287 294 310 4 348
0 359 354 354 357 2 3 3 1 359 347 42 4 328 285 60 74 300 40 8 6 341 125 11 327 313 295 50 335 333 303 288 283 283 261 255 278 233 255 177 233 237 13 344 37 289 60
3 1 354 355 360 4 4 0 1 0 357 39 11 302 333 72 41 37 1 342 347 358 321 343 8 333 45 310 286 251 266 252 239 240 277 245 237 238 254 180 231 82 36 9 76 59 75
3 1 356 357 359 4 5 1 358 358 357 38 0 359 4 47 27 30 9 351 313 250 33 343 11 3 321 285 270 239 225 228 196 283 229 258 264 251 223 216 102 160 172 158 191 98 89
4 1 358 357 358 4 4 0 358 357 355 31 33 345 359 332 31 330 318 24 337 350 247 78 59 2 300 285 279 287 322 336 232 204 252 235 244 266 240 258 244 27 133 60 287 141 121
3 0 358 356 358 5 2 2 358 353 356 20 25 353 52 79 44 20 19 353 349 335 282 44 357 320 265 293 308 336 348 315 306 326 356 259 305 268 255 244 92 65 94 246 228 99 124
3 359 355 354 357 2 359 359 356 351 349 350 49 8 31 87 61 36 33 14 355 353 339 9 1 309 318 313 347 1 336 330 247 341 340 354 335 18 334 356 88 360 92 22 94 103 120
359 356 352 351 354 358 356 354 352 346 339 334 41 22 18 66 92 98 60 29 9 354 320 335 358 41 341 343 2 336 350 349 339 25 0 66 23 57 64 80 18 48 86 94 108 123 123